Content
SEND FEEDBACK

Daily
Averages
Monthly
Summary
United Kingdom

ANDOVER, ENGLAND


Home > Europe > United Kingdom > England
Elevation: 407 feet     Latitude: 51 09N     Longitude: 001 44W

WEATHER
 
SELECT A DAY
Number of Records: 175,056;   Date Range: 7/1/96 - 10/21/14
 
SHARE

PRINT THIS DATA

[ ← Previous Day ]
WEATHER ALMANAC - NOVEMBER 1, 2013
[ Next Day → ]
[ °C ]   °F
Weather ElementAverageHighLow
Temperature53 °F56 °F (12:00 pm)50 °F (4:50 am)
Dewpoint51.6 °F53.6 °F (10:02 am)48.2 °F (2:50 am)
Humidity95.2 %100 % (7:50 am)88 % (1:50 am)
Barometer29.76 in29.91 in (3:00 am)29.53 in (10:50 pm)
Wind Speed10.3 mph20.7 mph (1:50 am)
Weather ElementAverage
Visibility5.4 mi
Wind DirectionS (177.9 °)

Weather ElementTotal
Precipitation---
Heating Degree Days12 (Base 65)
Growing Degree Days3 (Base 50)
Averaged from 47 records on November 1, 2013
WEATHER CONDITIONS BREAKOUT
WIND DIRECTION BREAKOUT
WEATHER BY HOUR - NOVEMBER 1, 2013
[ °C ]   °F
Local TimeTemperatureDewpointHumidityBarometerVisibilityWind DirectionWind SpeedGust SpeedPrecipitationEventsConditions
12:50 AM53.6 °F51.8 °F94 %29.89 in6.2 miSW (220°)17.3 mphMostly Cloudy
1:50 AM53.6 °F50.0 °F88 %29.89 in6.2 miSW (230°)20.7 mphMostly Cloudy
2:50 AM51.8 °F48.2 °F88 %29.89 in6.2 miWSW (250°)12.7 mphMostly Cloudy
3:00 AM51.0 °F49.0 °F88 %29.91 in31.0 miWSW (250°)12.7 mphScattered Clouds
3:50 AM51.8 °F50.0 °F94 %29.89 in6.2 miWSW (240°)6.9 mphMostly Cloudy
4:50 AM50.0 °F48.2 °F94 %29.89 in6.2 miSSW (210°)4.6 mphMostly Cloudy
5:50 AM50.0 °F48.2 °F94 %29.86 in6.2 miSSW (210°)5.8 mphRainLight Rain Showers
6:50 AM50.0 °F48.2 °F94 %29.89 in6.2 miSouth (190°)8.1 mphRainLight Rain
7:50 AM50.0 °F50.0 °F100 %29.86 in6.2 miSouth (190°)5.8 mphRainLight Rain
8:12 AM50.0 °F50.0 °F100 %29.86 in6.2 miSouth (190°)6.9 mphRainLight Rain
8:40 AM51.8 °F50.0 °F94 %29.86 in6.2 miSouth (180°)6.9 mphRainLight Rain
8:50 AM51.8 °F50.0 °F94 %29.86 in6.2 miSouth (190°)6.9 mphRainLight Rain
9:35 AM53.6 °F51.8 °F94 %29.83 in1.2 miSouth (190°)10.4 mphRainRain
9:45 AM53.6 °F51.8 °F94 %29.83 in3.7 miSouth (190°)11.5 mphRainLight Rain
9:50 AM53.6 °F51.8 °F94 %29.83 in4.3 miSouth (190°)11.5 mphRainLight Rain
10:02 AM53.6 °F53.6 °F100 %29.83 in5.6 miSouth (190°)11.5 mphRainLight Rain
10:25 AM53.6 °F53.6 °F100 %29.83 in1.6 miSSW (200°)12.7 mphRainRain
10:35 AM53.6 °F53.6 °F100 %29.83 in3.1 miSSW (200°)11.5 mphRainLight Rain
10:50 AM53.6 °F53.6 °F100 %29.83 in3.7 miSSW (200°)11.5 mphRainLight Rain
11:07 AM53.6 °F53.6 °F100 %29.83 in5.0 miSSW (200°)13.8 mphRainLight Rain
11:30 AM55.4 °F53.6 °F94 %29.80 in6.2 miSSW (200°)13.8 mphMostly Cloudy
11:50 AM55.4 °F53.6 °F94 %29.80 in6.2 miSSW (210°)15.0 mphRainLight Rain
12:00 PM56.0 °F53.0 °F88 %29.81 in9.0 miSSW (210°)15.0 mphRainLight Rain
12:03 PM55.4 °F53.6 °F94 %29.80 in1.9 miSSW (210°)16.1 mphRainRain
12:20 PM53.6 °F51.8 °F94 %29.80 in3.1 miSW (220°)12.7 mphRainLight Rain
12:40 PM55.4 °F53.6 °F94 %29.77 in5.6 miSW (220°)11.5 mphRainLight Rain
12:50 PM55.4 °F53.6 °F94 %29.77 in6.2 miSSW (200°)11.5 mphMostly Cloudy
1:33 PM55.4 °F53.6 °F94 %29.74 in4.3 miSouth (190°)16.1 mphRainLight Rain
1:43 PM53.6 °F51.8 °F94 %29.74 in2.8 miSouth (190°)15.0 mphRainLight Rain
1:50 PM53.6 °F51.8 °F94 %29.74 in3.7 miSSW (200°)12.7 mphRainLight Rain
2:30 PM55.4 °F53.6 °F94 %29.74 in5.0 miSouth (190°)11.5 mphRainLight Rain
2:50 PM55.4 °F51.8 °F88 %29.74 in5.6 miSSW (200°)11.5 mphRainLight Rain
3:00 PM55.0 °F52.0 °F88 %29.74 in6.0 miSSW (200°)11.5 mphRainLight Rain
3:50 PM53.6 °F51.8 °F94 %29.68 in1.9 miSouth (170°)10.4 mphDrizzle
4:02 PM53.6 °F53.6 °F100 %29.68 in1.2 miSouth (170°)8.1 mphDrizzle
4:17 PM53.6 °F53.6 °F100 %29.68 in0.9 miSouth (170°)6.9 mphRainRain
4:26 PM53.6 °F51.8 °F94 %29.68 in2.2 miSSE (160°)9.2 mphRainRain
4:50 PM53.6 °F51.8 °F94 %29.68 in5.0 miSouth (170°)6.9 mphMostly Cloudy
5:50 PM51.8 °F51.8 °F100 %29.65 in6.2 miSSE (150°)8.1 mphMostly Cloudy
6:00 PM52.0 °F51.0 °F96 %29.66 in8.0 miSSE (150°)8.1 mphScattered Clouds
6:50 PM51.8 °F51.8 °F100 %29.62 in6.2 miSE (130°)5.8 mphOvercast
7:50 PM51.8 °F51.8 °F100 %29.59 in5.6 miNE (50°)3.5 mphRainLight Rain Showers
8:50 PM51.8 °F50.0 °F94 %29.56 in5.6 miENE (70°)5.8 mphRainLight Rain
9:00 PM51.0 °F51.0 °F99 %29.59 in6.0 miENE (70°)5.8 mphRainLight Rain
9:50 PM51.8 °F50.0 °F94 %29.56 in3.7 miNE (50°)5.8 mphLight Drizzle
10:50 PM50.0 °F50.0 °F100 %29.53 in3.7 miENE (60°)8.1 mphLight Drizzle
11:50 PM50.0 °F50.0 °F100 %29.56 in3.7 miNE (40°)5.8 mphLight Drizzle
Hourly data recorded from EGDM, located miles away from Andover, England







STORIES FROM OUR PARTNERS